Precipitable_Water
0.34 0.36 0.35 0.29 0.26 0.27 0.27 0.30 0.27 0.26 0.26 0.28 0.28 0.29 0.35 0.43 0.46 0.50 0.58 0.60 0.64 0.72 0.76 0.81 0.84 0.90 0.95 0.98 1.02 1.05 1.04 1.04 1.05 1.11 1.16 1.20 1.19 1.15 1.13 1.13 1.07 1.07 1.04 1.00
0.34 0.38 0.37 0.31 0.31 0.30 0.29 0.28 0.29 0.27 0.24 0.30 0.33 0.39 0.42 0.50 0.61 0.61 0.64 0.66 0.68 0.70 0.71 0.73 0.77 0.80 0.84 0.89 0.95 1.06 1.03 1.02 1.11 1.15 1.16 1.14 1.13 1.08 1.04 1.03 1.03 1.02 0.99 0.97
0.29 0.38 0.38 0.28 0.32 0.32 0.33 0.35 0.31 0.24 0.28 0.37 0.37 0.44 0.55 0.62 0.66 0.70 0.71 0.72 0.74 0.75 0.75 0.78 0.79 0.81 0.83 0.88 0.92 0.96 0.98 1.05 1.09 1.11 1.12 1.14 1.11 1.04 1.01 1.00 1.03 0.99 0.99 0.97
0.34 0.38 0.26 0.30 0.36 0.35 0.34 0.35 0.37 0.37 0.39 0.42 0.49 0.57 0.63 0.74 0.74 0.76 0.76 0.77 0.79 0.80 0.80 0.82 0.84 0.86 0.88 0.91 0.93 0.95 0.98 1.00 1.01 1.03 1.01 1.02 1.01 0.98 0.99 1.01 0.99 0.98 0.97 0.95
0.34 0.31 0.29 0.31 0.37 0.36 0.34 0.32 0.41 0.41 0.46 0.55 0.62 0.67 0.70 0.78 0.83 0.81 0.81 0.82 0.84 0.87 0.87 0.88 0.88 0.90 0.90 0.89 0.88 0.87 0.85 0.88 0.90 0.91 0.91 0.93 0.92 0.93 0.96 0.96 0.97 0.97 0.95 0.91
0.38 0.30 0.22 0.30 0.39 0.45 0.48 0.30 0.53 0.59 0.60 0.60 0.66 0.55 0.65 0.78 0.81 0.81 0.83 0.83 0.80 0.82 0.89 0.92 0.94 0.94 0.89 0.91 0.95 0.93 0.92 0.87 0.89 0.89 0.90 0.91 0.91 0.94 0.96 0.96 0.94 0.92 0.88 0.86
0.35 0.33 0.32 0.42 0.48 0.55 0.35 0.34 0.60 0.66 0.67 0.67 0.65 0.71 0.81 0.84 0.84 0.83 0.82 0.81 0.82 0.83 0.83 0.85 0.88 0.85 0.80 0.82 0.88 0.91 0.91 0.88 0.91 0.92 0.92 0.94 0.95 0.96 0.95 0.93 0.91 0.86 0.81 0.77
0.40 0.37 0.28 0.53 0.52 0.42 0.51 0.65 0.69 0.70 0.70 0.70 0.75 0.78 0.79 0.84 0.84 0.82 0.81 0.81 0.84 0.77 0.75 0.81 0.85 0.83 0.79 0.79 0.84 0.87 0.88 0.88 0.88 0.90 0.93 0.94 0.95 0.93 0.91 0.88 0.82 0.78 0.76 0.76
0.43 0.40 0.53 0.62 0.62 0.72 0.76 0.73 0.73 0.74 0.76 0.75 0.77 0.75 0.77 0.75 0.76 0.80 0.81 0.83 0.86 0.84 0.79 0.80 0.84 0.85 0.77 0.83 0.90 0.92 0.93 0.92 0.92 0.92 0.92 0.91 0.89 0.87 0.83 0.80 0.76 0.73 0.70 0.70
0.51 0.52 0.57 0.65 0.73 0.76 0.78 0.75 0.78 0.79 0.78 0.82 0.74 0.74 0.73 0.71 0.69 0.71 0.73 0.73 0.77 0.78 0.77 0.76 0.79 0.79 0.79 0.83 0.85 0.85 0.81 0.82 0.84 0.83 0.82 0.80 0.81 0.81 0.78 0.76 0.73 0.71 0.68 0.66
0.54 0.62 0.70 0.76 0.80 0.79 0.81 0.81 0.80 0.81 0.80 0.75 0.71 0.67 0.67 0.67 0.66 0.67 0.65 0.64 0.64 0.61 0.61 0.64 0.72 0.76 0.79 0.80 0.77 0.75 0.76 0.77 0.78 0.77 0.77 0.76 0.76 0.76 0.74 0.74 0.71 0.66 0.65 0.65
0.51 0.68 0.67 0.70 0.78 0.74 0.74 0.75 0.77 0.73 0.69 0.67 0.67 0.63 0.64 0.62 0.63 0.59 0.56 0.58 0.57 0.56 0.56 0.62 0.67 0.66 0.70 0.74 0.75 0.73 0.72 0.73 0.73 0.74 0.74 0.73 0.71 0.69 0.73 0.71 0.71 0.70 0.68 0.65
0.63 0.72 0.71 0.71 0.69 0.67 0.66 0.68 0.66 0.63 0.61 0.57 0.58 0.60 0.59 0.58 0.56 0.57 0.57 0.57 0.53 0.51 0.53 0.55 0.58 0.59 0.64 0.66 0.68 0.68 0.66 0.69 0.69 0.69 0.67 0.64 0.63 0.63 0.59 0.64 0.66 0.65 0.63 0.61
0.61 0.57 0.52 0.52 0.48 0.51 0.52 0.52 0.57 0.55 0.55 0.54 0.53 0.54 0.53 0.51 0.50 0.49 0.48 0.49 0.51 0.51 0.51 0.53 0.53 0.54 0.59 0.61 0.61 0.59 0.59 0.60 0.60 0.59 0.58 0.57 0.57 0.56 0.56 0.53 0.52 0.53 0.57 0.58
0.48 0.50 0.47 0.45 0.45 0.45 0.46 0.46 0.44 0.44 0.46 0.47 0.49 0.49 0.49 0.46 0.46 0.47 0.48 0.48 0.48 0.47 0.47 0.48 0.48 0.49 0.53 0.53 0.54 0.55 0.54 0.54 0.54 0.53 0.53 0.52 0.52 0.51 0.51 0.50 0.49 0.50 0.51 0.54
0.40 0.42 0.41 0.40 0.42 0.44 0.44 0.43 0.37 0.39 0.41 0.42 0.44 0.44 0.44 0.44 0.44 0.42 0.43 0.43 0.41 0.39 0.42 0.43 0.44 0.46 0.49 0.50 0.50 0.50 0.51 0.51 0.50 0.49 0.49 0.48 0.48 0.47 0.46 0.46 0.46 0.46 0.46 0.47
0.34 0.32 0.33 0.32 0.33 0.33 0.33 0.35 0.36 0.37 0.39 0.40 0.41 0.42 0.41 0.40 0.38 0.38 0.39 0.40 0.40 0.40 0.41 0.41 0.40 0.43 0.44 0.45 0.45 0.44 0.44 0.44 0.46 0.45 0.44 0.44 0.44 0.44 0.44 0.44 0.44 0.45 0.45 0.48
0.38 0.37 0.36 0.34 0.32 0.32 0.33 0.36 0.37 0.38 0.37 0.38 0.38 0.37 0.36 0.35 0.34 0.35 0.36 0.37 0.38 0.37 0.37 0.37 0.39 0.39 0.40 0.40 0.39 0.38 0.37 0.37 0.36 0.36 0.37 0.37 0.37 0.39 0.40 0.41 0.42 0.42 0.44 0.46
0.32 0.31 0.32 0.32 0.33 0.33 0.33 0.33 0.34 0.35 0.36 0.37 0.36 0.35 0.35 0.34 0.33 0.34 0.35 0.33 0.31 0.28 0.30 0.32 0.32 0.32 0.32 0.34 0.35 0.35 0.33 0.32 0.31 0.32 0.32 0.32 0.32 0.34 0.34 0.35 0.36 0.38 0.40 0.40
0.29 0.30 0.31 0.31 0.33 0.34 0.33 0.35 0.36 0.36 0.38 0.37 0.35 0.32 0.30 0.30 0.30 0.30 0.29 0.26 0.26 0.27 0.31 0.31 0.30 0.30 0.30 0.31 0.32 0.32 0.31 0.31 0.30 0.30 0.30 0.30 0.30 0.30 0.30 0.31 0.33 0.36 0.38 0.39
0.29 0.31 0.33 0.34 0.35 0.37 0.37 0.38 0.37 0.35 0.35 0.32 0.29 0.28 0.26 0.27 0.26 0.25 0.23 0.22 0.25 0.27 0.29 0.28 0.27 0.26 0.26 0.25 0.26 0.27 0.28 0.28 0.29 0.29 0.30 0.29 0.28 0.27 0.27 0.27 0.28 0.32 0.36 0.39
0.32 0.33 0.35 0.35 0.33 0.33 0.33 0.32 0.30 0.28 0.26 0.24 0.23 0.23 0.22 0.22 0.24 0.24 0.25 0.23 0.23 0.23 0.22 0.21 0.20 0.19 0.18 0.17 0.16 0.16 0.17 0.19 0.22 0.24 0.24 0.24 0.24 0.22 0.22 0.23 0.23 0.25 0.29 0.33
0.34 0.34 0.33 0.32 0.31 0.29 0.27 0.25 0.23 0.21 0.21 0.20 0.20 0.20 0.21 0.21 0.19 0.16 0.14 0.17 0.17 0.17 0.16 0.15 0.15 0.15 0.16 0.16 0.16 0.15 0.15 0.15 0.15 0.17 0.18 0.21 0.20 0.18 0.19 0.20 0.22 0.25 0.28 0.29
0.33 0.33 0.31 0.31 0.28 0.24 0.21 0.22 0.23 0.22 0.22 0.22 0.22 0.21 0.17 0.14 0.14 0.15 0.16 0.16 0.16 0.15 0.15 0.16 0.16 0.18 0.18 0.18 0.18 0.18 0.19 0.18 0.19 0.20 0.21 0.21 0.20 0.21 0.22 0.21 0.21 0.23 0.25 0.27
0.31 0.31 0.30 0.27 0.25 0.23 0.23 0.25 0.23 0.23 0.24 0.23 0.21 0.18 0.16 0.16 0.13 0.15 0.15 0.16 0.16 0.16 0.15 0.16 0.16 0.17 0.17 0.16 0.16 0.17 0.17 0.18 0.19 0.19 0.19 0.19 0.20 0.20 0.21 0.21 0.22 0.22 0.24 0.25
0.30 0.28 0.28 0.26 0.25 0.25 0.25 0.24 0.24 0.24 0.23 0.19 0.17 0.16 0.15 0.15 0.15 0.15 0.15 0.15 0.15 0.15 0.15 0.15 0.16 0.16 0.16 0.16 0.16 0.17 0.17 0.17 0.18 0.18 0.18 0.19 0.19 0.20 0.20 0.20 0.20 0.21 0.21 0.22
0.28 0.27 0.26 0.26 0.27 0.26 0.25 0.24 0.23 0.21 0.18 0.16 0.14 0.15 0.14 0.14 0.14 0.14 0.14 0.14 0.14 0.14 0.15 0.15 0.16 0.16 0.16 0.17 0.17 0.17 0.18 0.18 0.18 0.19 0.19 0.19 0.19 0.19 0.19 0.19 0.20 0.20 0.20 0.20
Wind_Speed
29 26 25 27 29 27 27 27 27 29 33 33 35 37 38 39 38 38 37 36 35 34 33 33 34 36 38 38 37 35 33 32 33 33 32 32 32 32 32 32 32 32 32 32
28 26 28 32 34 32 33 34 34 40 42 36 38 38 40 38 36 35 34 34 34 35 37 37 36 37 37 38 37 35 35 35 35 34 35 35 35 34 33 32 33 32 32 33
30 26 28 37 34 36 37 33 33 37 39 36 39 37 35 35 34 32 32 31 30 28 30 32 34 33 32 32 33 35 36 35 36 37 37 37 36 35 35 34 34 34 34 35
26 24 31 32 31 31 30 30 31 35 37 39 37 35 35 28 26 26 26 26 27 27 27 29 29 29 30 30 31 33 34 36 37 37 38 38 37 37 37 36 36 35 36 37
26 28 34 36 29 28 28 35 35 37 38 36 33 27 24 24 25 24 23 23 23 25 26 26 25 26 27 28 30 33 35 37 38 39 39 38 38 38 38 37 37 37 36 36
26 27 35 33 32 32 29 37 27 26 27 26 24 22 23 23 21 22 23 23 24 24 24 24 26 27 28 31 33 34 36 38 39 40 40 40 40 39 39 39 38 37 37 37
33 32 38 34 32 29 30 31 27 27 28 26 24 24 26 25 24 24 23 25 26 27 28 29 30 32 34 36 38 40 41 42 41 41 41 41 41 40 39 38 37 36 36 36
30 30 39 28 27 30 29 28 28 28 28 27 26 26 27 27 28 29 32 32 32 33 33 35 37 37 39 39 40 40 40 41 42 43 42 43 43 40 38 36 36 36 36 36
30 31 30 27 26 25 26 26 28 27 27 28 27 27 28 29 32 34 37 38 40 40 41 41 42 42 41 41 41 43 43 45 44 43 42 40 39 38 37 35 34 35 35 33
29 34 32 29 28 28 28 29 30 31 31 29 31 31 33 34 36 37 38 40 41 43 44 45 45 44 45 44 44 43 43 42 42 41 39 37 37 35 35 35 34 32 34 35
34 30 29 27 28 30 31 30 30 30 30 32 33 33 35 37 38 39 40 40 41 43 45 46 47 47 46 45 44 42 41 41 40 39 36 34 33 33 34 35 35 35 36 35
31 27 27 29 30 29 29 30 33 31 32 35 36 38 40 41 41 42 43 44 45 46 47 47 45 45 45 44 44 43 42 42 40 39 38 37 36 36 36 35 37 37 36 36
25 27 26 27 28 28 29 31 32 33 34 35 37 39 39 39 40 43 44 45 45 44 43 42 42 42 43 43 43 44 43 42 40 39 37 36 37 37 38 37 36 36 36 35
26 26 26 26 27 28 29 30 31 32 34 34 35 36 37 38 40 40 41 41 41 41 40 40 40 40 40 41 40 38 37 36 35 34 34 36 36 36 36 35 35 36 35 33
24 26 28 28 27 27 28 30 30 32 33 34 35 36 36 37 37 38 39 39 39 39 39 39 38 38 37 36 35 34 32 31 31 32 32 32 31 31 32 32 32 31 31 29
25 25 25 25 26 27 28 29 29 30 31 32 32 33 34 36 37 37 37 37 37 37 36 36 35 35 34 33 31 29 28 28 27 26 27 27 28 28 29 29 27 26 25 25
23 24 24 25 25 26 27 28 29 30 31 32 33 34 35 35 35 35 34 34 33 31 30 29 28 28 26 25 25 25 24 24 24 24 24 24 23 22 22 22 22 21 22 21
20 22 23 24 24 25 26 27 28 29 30 31 31 30 30 30 29 28 27 26 24 23 22 21 21 20 20 19 19 18 18 18 18 19 19 19 19 19 20 19 18 18 18 17
20 21 22 23 24 25 26 26 27 26 26 25 24 24 23 22 21 21 20 19 19 19 20 20 20 19 20 20 20 20 20 20 19 19 19 19 19 18 18 17 18 18 18 17
19 20 22 22 23 22 22 21 20 20 20 19 19 18 18 18 17 17 17 17 18 19 19 19 20 20 21 22 22 22 22 22 22 22 21 21 21 20 20 20 19 18 18 17
19 19 19 18 17 17 16 16 15 15 15 15 14 14 15 16 16 17 17 17 19 20 21 22 23 24 25 25 25 25 25 25 25 25 25 25 24 23 23 22 22 21 20 19
16 16 14 13 12 12 12 11 11 10 11 12 13 14 15 16 16 17 18 20 22 23 24 25 27 28 29 30 30 30 30 30 30 29 28 28 27 26 26 25 24 23 23 22
14 12 11 10 9 8 7 8 9 10 11 12 13 14 15 17 19 20 22 24 25 26 27 28 29 30 31 31 31 31 30 30 30 29 29 28 27 27 26 25 24 24 22 20
9 9 9 8 7 7 7 8 9 10 11 12 14 16 18 19 21 22 23 24 25 27 28 29 30 30 30 29 28 27 26 25 24 22 22 23 23 22 21 21 20 20 20 19
7 7 8 8 7 7 8 9 10 11 12 13 15 17 19 21 22 23 24 26 27 28 29 30 30 29 28 28 27 26 24 23 21 21 20 19 18 18 17 17 17 17 18 19
6 6 6 6 6 7 8 9 10 11 13 15 17 19 20 22 23 24 25 26 28 28 28 29 29 28 27 26 25 23 22 21 19 18 17 17 16 16 16 16 16 16 17 18
6 5 5 5 6 7 8 9 11 13 15 16 18 20 21 23 24 25 26 26 27 28 28 28 27 26 24 23 21 19 17 16 14 14 13 13 13 13 13 13 13 13 14 14
Wind_Direction
243 246 251 251 254 255 257 260 264 278 278 284 288 290 292 292 287 284 281 278 274 270 269 267 268 269 269 270 270 269 269 269 272 275 278 280 282 281 280 278 276 275 273 272
246 247 254 258 259 261 261 267 270 279 279 285 288 292 294 292 289 285 281 279 277 271 269 269 270 273 273 269 268 266 268 271 273 275 279 279 281 280 278 278 275 274 273 273
252 251 262 262 256 259 265 265 270 273 280 287 289 290 292 292 288 287 285 284 281 278 271 272 273 273 272 272 268 266 269 271 274 277 278 279 280 278 277 276 275 274 273 274
252 258 255 259 260 262 264 268 271 276 282 286 286 286 289 292 289 287 286 286 285 283 280 278 278 276 275 272 270 270 271 274 276 278 280 280 278 277 277 276 274 274 274 275
252 253 265 261 264 267 269 271 276 281 285 286 284 282 279 293 291 286 291 291 292 292 287 285 283 283 281 278 277 275 276 277 278 279 280 279 279 277 276 274 274 274 275 276
251 256 260 272 266 268 269 270 277 281 284 285 283 274 275 290 291 291 291 293 296 296 294 291 289 289 287 285 283 281 282 282 281 280 278 277 279 277 275 274 273 273 275 275
250 257 264 261 263 271 268 276 277 275 276 281 277 271 274 281 285 286 289 295 295 295 293 291 289 290 291 290 284 283 282 284 283 282 281 278 278 277 274 273 270 272 274 275
251 254 263 266 270 257 270 273 275 275 274 274 273 272 277 277 284 285 288 290 292 293 293 291 290 290 291 291 287 286 286 286 284 283 281 281 278 274 271 269 269 269 271 275
246 255 263 267 265 265 271 271 275 274 273 274 271 273 279 282 285 288 290 289 290 291 291 292 290 290 291 289 285 283 286 288 283 282 281 280 276 272 268 266 267 270 274 273
258 256 263 259 259 265 267 274 270 272 270 270 275 279 280 285 289 289 291 293 292 293 293 292 290 290 290 288 286 285 285 284 283 283 280 278 273 268 267 268 270 270 274 274
255 261 264 257 256 263 267 267 268 265 269 273 277 280 282 286 289 290 291 292 292 293 294 293 291 290 288 287 286 285 284 284 283 280 278 277 274 270 269 268 271 274 275 275
259 261 260 258 260 264 263 265 264 266 273 276 278 282 285 286 288 290 291 292 292 293 294 293 292 292 292 290 288 286 285 284 282 277 274 273 271 271 270 271 274 275 274 275
253 256 258 259 260 262 264 266 267 271 275 278 282 283 285 287 290 293 296 296 296 296 296 295 294 294 292 292 289 287 284 283 280 277 275 271 273 272 273 274 274 274 275 276
252 255 259 261 265 269 270 272 273 276 280 281 284 286 288 289 293 296 297 298 298 298 298 298 297 296 297 295 292 289 285 284 279 277 276 276 275 275 275 274 275 276 276 273
259 262 264 268 270 270 272 275 278 280 282 285 287 288 289 291 292 294 295 297 297 297 297 297 297 297 297 297 294 290 286 284 282 282 281 280 278 278 278 277 277 276 276 273
262 264 268 271 273 276 279 282 281 282 284 286 287 289 290 292 294 295 296 297 297 297 296 296 296 296 296 295 294 291 289 287 285 285 285 283 282 282 282 281 278 275 273 272
262 268 272 274 277 279 281 281 282 284 286 287 289 291 292 292 293 295 296 298 299 298 298 299 299 300 299 298 297 294 292 290 289 287 287 286 288 286 284 282 279 276 274 273
265 268 273 275 278 281 284 285 286 287 288 290 292 294 295 297 297 298 299 300 301 303 305 307 307 307 307 306 304 304 301 299 296 294 292 292 292 289 287 284 280 277 276 273
270 273 276 278 280 281 284 286 288 289 291 292 295 298 299 300 300 300 300 304 305 306 307 308 309 308 308 305 301 300 299 298 295 294 292 293 293 291 290 286 281 278 275 271
275 277 280 282 284 283 285 287 290 292 294 295 296 299 301 301 301 301 301 307 308 306 307 308 307 307 307 306 305 300 297 295 291 289 287 288 288 287 285 283 281 278 273 269
278 281 283 284 284 286 287 289 291 293 294 296 298 302 304 304 307 306 303 305 308 308 306 306 306 305 303 303 300 297 294 292 289 288 285 285 284 284 282 281 278 273 270 265
276 278 279 279 280 282 283 286 289 293 298 303 304 305 307 309 308 309 310 307 306 307 305 305 304 303 302 300 297 295 291 288 285 284 282 281 280 280 279 277 274 271 266 261
266 264 265 267 267 269 278 286 293 298 303 307 309 310 310 310 310 308 307 308 307 307 307 306 306 305 304 301 299 296 292 289 286 282 280 279 278 278 276 273 271 267 262 257
248 244 243 246 254 266 278 284 295 302 307 311 313 313 313 312 312 312 311 311 311 311 310 310 309 308 307 306 305 302 298 294 291 286 282 281 281 278 273 272 269 263 255 251
224 224 230 246 258 269 279 291 296 301 308 312 315 317 317 317 315 315 314 314 314 314 314 313 312 311 309 308 305 301 298 295 292 288 286 283 280 278 274 270 265 260 254 251
220 231 239 253 267 281 288 296 303 305 309 313 316 318 319 319 318 318 318 317 317 317 317 316 315 314 312 310 307 304 299 295 292 289 285 281 279 277 275 270 266 261 256 254
220 226 245 264 281 292 297 303 307 310 312 315 317 319 321 322 322 321 322 322 321 320 320 319 319 318 316 314 312 309 305 301 298 292 288 284 282 280 276 271 266 260 256 252